#timestamp,LO_Frequency,Hit,StdDev 
1676278815.5,286046999.7,N
1676278835.3,286047000.7,N
1676278855.2,286046998.4,N
1676278875.9,286046999.9,N
1676278895.7,286046999.9,N
1676278915.6,286047000.5,N
1676278935.4,286046998.6,N
1676278955.2,286046999.2,N
1676278975.1,286046998.7,N
1676278976.0,286046998.7,N
1676278995.8,286046999.1,N
1676279015.7,286046998.2,N
1676279035.5,286046998.1,N
1676279055.3,286046999.6,N
1676279075.2,286046997.2,N
1676279095.0,286046997.5,N
1676279095.9,286046997.5,N
1676279115.7,286046997.8,N
1676279135.6,286046997.8,N
1676279155.4,286047001.1,N
1676279175.3,286047000.9,N
1676279195.1,286047001.2,N
1676279196.0,286047001.2,N
1676279215.8,286046999.4,N
1676279235.7,286046999.0,N
1676279255.5,286046999.0,N
1676279275.4,286046998.1,N
1676279295.2,286047000.4,N
1676279315.0,286047000.8,N
1676279315.9,286047000.8,N
1676279335.8,286046998.5,N
1676279355.6,286046998.5,N
1676279375.4,286047002.4,N
1676279395.3,286047002.6,N
1676279415.1,286046998.1,N
1676279435.8,286046998.4,N
1676279455.6,286046996.8,N
1676279475.5,286046998.2,N
1676279495.3,286047001.7,N
1676279515.2,286047002.8,N
1676279535.9,286047000.0,N
1676279555.7,286047001.6,N
1676279605.6,286047001.0,E
1676279615.5,286046998.8,N
1676279635.4,286046997.1,P
1676279655.2,286046997.2,P
1676279675.0,286046996.7,Y
1676279675.9,286046996.7,P
1676279695.8,286047000.3,N
1676279715.6,286047000.9,N
1676279735.5,286046999.0,N
1676279755.3,286047000.4,N
1676279775.1,286047002.0,N
1676279795.9,286047001.8,N
1676279815.7,286047002.5,N
1676279835.5,286047002.3,N
1676279855.4,286047002.0,N
1676279875.2,286047002.4,N
1676279895.1,286046998.4,N
1676279896.0,286046998.4,N
1676279915.8,286046996.5,N
1676279935.6,286047000.8,N
1676279955.5,286047001.0,N
1676279975.3,286046996.5,N
1676279995.1,286046995.0,N
1676280015.9,286046995.4,N
1676280035.7,286046997.1,N
1676280055.6,286047000.6,N
1676280075.4,286047001.2,N
1676280095.2,286046995.1,N
1676280115.1,286046994.9,N
1676280116.0,286046994.9,N
1676280135.8,286046997.0,N
1676280155.6,286046997.8,N
1676280175.5,286046999.4,N
1676280195.3,286046999.3,N
1676280215.2,286046997.8,N
1676280235.9,286046998.5,N
1676280255.7,286047000.6,N
1676280275.6,286047000.0,N
1676280295.4,286046998.1,N
1676280315.2,286047001.1,N
1676280335.1,286046998.6,N
1676280336.0,286046998.6,N
1676280355.8,286047000.2,N
1676280375.7,286047002.5,N
1676280395.5,286047002.8,N
1676280415.3,286047000.2,N
1676280435.2,286047001.5,N
1676280455.0,286047000.1,N
1676280455.9,286047000.1,N
1676280475.8,286047000.5,N
1676280495.6,286047001.0,N
1676280515.4,286046999.9,N
1676280535.3,286047000.8,N
1676280555.1,286046999.0,N
1676280575.8,286046999.2,N
1676280595.7,286047000.7,N
1676280615.5,286047001.2,N
1676280635.4,286046998.1,N
1676280655.2,286047000.9,N
1676280675.0,286047000.8,N
1676280675.9,286047000.8,N
1676280695.8,286046998.4,N
1676280715.6,286046998.7,N
1676280735.4,286047000.2,N
1676280755.3,286047002.1,N
1676280775.1,286047003.2,N
1676280795.9,286047004.0,Y
1676280815.7,286047001.0,P
1676280835.5,286047000.1,N
1676280855.4,286047001.0,N
1676280875.2,286047000.1,N
1676280895.0,286047000.4,N
1676280895.9,286047000.4,N
1676280915.8,286047002.2,Y
1676280935.6,286046998.6,P
1676280955.5,286046999.2,N
1676280975.3,286046998.7,N
1676280995.1,286046999.5,N
1676281015.9,286046997.3,Y
1676281035.7,286046995.4,P
1676281055.4,286046995.1,N
1676281075.2,286046996.4,N
1676281095.0,286046994.1,Y
1676281095.9,286046994.1,P
1676281115.8,286046996.9,N
1676281135.6,286046998.3,N
1676281155.4,286046998.5,N
1676281175.3,286047001.0,N
1676281195.1,286047002.0,N
1676281215.9,286047004.2,N
1676281235.7,286047003.6,N
1676281255.5,286047001.4,N
1676281275.4,286047003.7,N
1676281295.2,286047001.6,N
1676281315.0,286047000.1,N
1676281315.9,286047000.1,N
1676281335.8,286047002.5,N
1676281355.6,286047001.9,N
1676281375.5,286047003.5,N
1676281395.3,286047006.0,N
1676281415.1,286047006.0,N
1676281435.9,286047001.6,N
1676281455.7,286047001.9,N
1676281475.5,286047005.2,N
1676281495.4,286047004.6,N
1676281515.2,286047005.6,N
1676281535.1,286047003.5,N
1676281536.0,286047003.5,N
1676281555.8,286047001.3,N
1676281575.6,286047004.1,N
1676281595.5,286047001.6,N
1676281615.3,286047003.8,N
1676281635.1,286047003.1,N
1676281655.9,286047005.6,N
1676281675.7,286047004.4,N
1676281695.6,286047001.9,N
1676281715.4,286047002.5,N
1676281735.2,286047002.1,N
1676281755.1,286046997.2,N
1676281756.0,286046997.2,N
1676281775.8,286046997.8,N
1676281795.7,286046999.1,N
1676281815.5,286046998.3,N
1676281835.3,286046999.2,N
1676281855.2,286046999.9,N
1676281875.0,286047001.1,N
1676281875.9,286047001.1,N
1676281895.8,286047000.1,N
1676281915.6,286047001.4,N
1676281935.4,286047001.4,N
1676281955.3,286047001.5,N
1676281975.1,286047002.5,N
1676281995.9,286047004.0,N
1676282015.7,286047001.6,N
1676282035.5,286047001.8,N
1676282055.4,286047003.1,N
1676282075.2,286047001.6,N
1676282095.1,286047001.4,N
1676282096.0,286047001.4,N
1676282115.8,286047003.9,N
1676282135.6,286047001.6,N
1676282155.5,286046999.7,N
1676282175.3,286047001.8,N
1676282195.2,286047004.1,N
1676282215.9,286047005.8,Y
1676282235.7,286047003.4,P
1676282255.6,286047002.2,N
1676282275.4,286047003.6,P
1676282295.3,286047005.6,Y
1676282315.1,286047002.0,P
1676282316.0,286047002.0,P
1676282335.8,286046999.9,N
1676282355.7,286046998.7,N
1676282375.5,286047001.5,N
1676282395.4,286046999.9,N
